Tracking 25734 objects as of 27-May-2022
HD Live streaming from Space Station
objects crossing your sky now

STARLINK-1146

Track STARLINK-1146 now!
10-day predictions
STARLINK-1146 is classified as:


NORAD ID: 45094
Int'l Code: 2020-006BC
Perigee: 553.4 km
Apogee: 555.3 km
Inclination: 53.1 °
Period: 95.6 minutes
Semi major axis: 6925 km
RCS: Unknown
Launch date: January 29, 2020
Source: United States (US)
Launch site: AIR FORCE EASTERN TEST RANGE (AFETR)
aabbcc
Your satellite tracking list
Your tracking list is empty




NASA's NSSDC Master Catalog

Two Line Element Set (TLE):
1 45094U 20006BC  22146.80134224  .00002734  00000-0  20234-3 0  9999
2 45094  53.0549 334.6464 0001389  70.7295 289.3844 15.06402618128597
Source of the keplerian elements: AFSPC